QPF
0.00 0.00 0.00 0.00 0.00 0.00 0.00 0.00 0.00 0.00 0.01 0.00 0.00 0.00 0.01 0.01 0.01 0.02 0.02 0.02 0.02 0.03 0.04 0.05 0.05 0.05 0.05 0.05 0.06 0.07 0.05 0.04 0.03 0.04 0.05 0.05 0.06 0.07 0.06 0.04 0.04 0.06 0.09 0.07 0.05 0.05 0.04 0.05 0.05
0.00 0.00 0.00 0.00 0.00 0.00 0.00 0.00 0.00 0.01 0.01 0.00 0.00 0.00 0.00 0.00 0.00 0.01 0.02 0.01 0.01 0.02 0.02 0.02 0.04 0.04 0.04 0.04 0.04 0.07 0.05 0.03 0.03 0.04 0.04 0.04 0.05 0.07 0.07 0.05 0.05 0.07 0.08 0.05 0.05 0.04 0.03 0.04 0.05
0.00 0.00 0.00 0.00 0.00 0.00 0.00 0.00 0.01 0.00 0.00 0.00 0.01 0.00 0.00 0.00 0.01 0.01 0.01 0.01 0.00 0.01 0.01 0.02 0.03 0.03 0.03 0.03 0.04 0.07 0.05 0.03 0.03 0.04 0.05 0.04 0.04 0.04 0.05 0.06 0.06 0.05 0.06 0.05 0.04 0.02 0.03 0.04 0.04
0.00 0.00 0.00 0.00 0.00 0.00 0.00 0.00 0.01 0.01 0.01 0.01 0.01 0.01 0.00 0.00 0.01 0.00 0.00 0.00 0.00 0.00 0.01 0.01 0.03 0.03 0.02 0.03 0.04 0.06 0.05 0.04 0.04 0.05 0.07 0.06 0.05 0.05 0.06 0.07 0.07 0.05 0.05 0.06 0.06 0.03 0.05 0.06 0.06
0.00 0.00 0.00 0.00 0.00 0.00 0.00 0.00 0.00 0.00 0.00 0.00 0.01 0.01 0.00 0.00 0.00 0.00 0.00 0.01 0.00 0.00 0.01 0.01 0.03 0.03 0.02 0.03 0.04 0.06 0.07 0.05 0.04 0.04 0.04 0.04 0.04 0.05 0.06 0.06 0.06 0.06 0.06 0.05 0.04 0.04 0.06 0.07 0.07
0.00 0.00 0.00 0.00 0.00 0.00 0.00 0.00 0.00 0.00 0.01 0.00 0.00 0.01 0.01 0.00 0.00 0.00 0.01 0.01 0.01 0.00 0.01 0.02 0.03 0.03 0.03 0.04 0.04 0.05 0.05 0.05 0.04 0.03 0.03 0.03 0.03 0.03 0.04 0.05 0.06 0.05 0.06 0.05 0.04 0.04 0.05 0.06 0.05
0.00 0.00 0.00 0.00 0.00 0.00 0.00 0.00 0.00 0.00 0.01 0.00 0.00 0.00 0.00 0.00 0.00 0.00 0.00 0.01 0.00 0.00 0.00 0.01 0.03 0.04 0.04 0.05 0.05 0.05 0.05 0.04 0.04 0.04 0.04 0.03 0.02 0.03 0.03 0.03 0.04 0.03 0.03 0.04 0.04 0.04 0.06 0.07 0.04
0.00 0.00 0.00 0.00 0.00 0.00 0.00 0.00 0.00 0.00 0.01 0.00 0.00 0.00 0.00 0.00 0.00 0.00 0.00 0.00 0.00 0.00 0.01 0.01 0.02 0.03 0.04 0.05 0.06 0.07 0.05 0.05 0.04 0.04 0.04 0.03 0.02 0.02 0.02 0.02 0.03 0.03 0.03 0.04 0.03 0.03 0.04 0.06 0.05
0.00 0.00 0.00 0.00 0.00 0.00 0.00 0.00 0.00 0.00 0.00 0.00 0.00 0.00 0.00 0.00 0.00 0.00 0.00 0.00 0.00 0.00 0.01 0.01 0.02 0.03 0.05 0.06 0.07 0.08 0.07 0.05 0.03 0.03 0.03 0.03 0.03 0.02 0.02 0.02 0.05 0.05 0.05 0.05 0.04 0.04 0.03 0.03 0.04
0.00 0.00 0.00 0.00 0.00 0.00 0.00 0.00 0.00 0.00 0.00 0.00 0.00 0.00 0.00 0.00 0.00 0.00 0.00 0.00 0.00 0.01 0.02 0.01 0.02 0.02 0.03 0.03 0.04 0.05 0.04 0.03 0.04 0.04 0.03 0.03 0.02 0.02 0.02 0.03 0.05 0.06 0.05 0.04 0.04 0.04 0.02 0.02 0.02
0.00 0.00 0.00 0.00 0.00 0.00 0.00 0.00 0.00 0.00 0.00 0.00 0.00 0.00 0.00 0.00 0.00 0.00 0.00 0.00 0.00 0.01 0.01 0.01 0.01 0.01 0.01 0.03 0.03 0.03 0.03 0.03 0.02 0.02 0.02 0.02 0.03 0.03 0.04 0.05 0.04 0.04 0.03 0.03 0.03 0.03 0.03 0.02 0.03
0.00 0.00 0.00 0.00 0.00 0.00 0.00 0.00 0.00 0.00 0.00 0.00 0.00 0.00 0.00 0.00 0.00 0.00 0.00 0.00 0.00 0.00 0.00 0.00 0.01 0.02 0.02 0.02 0.02 0.02 0.01 0.01 0.01 0.02 0.03 0.05 0.04 0.04 0.04 0.05 0.03 0.02 0.03 0.04 0.03 0.03 0.03 0.02 0.03
0.00 0.00 0.00 0.00 0.00 0.00 0.00 0.00 0.00 0.00 0.00 0.00 0.00 0.00 0.00 0.00 0.00 0.00 0.00 0.00 0.00 0.00 0.00 0.00 0.01 0.02 0.04 0.03 0.02 0.01 0.01 0.01 0.02 0.03 0.06 0.09 0.05 0.05 0.05 0.04 0.04 0.02 0.01 0.02 0.03 0.02 0.04 0.03 0.02
0.00 0.00 0.00 0.00 0.00 0.00 0.00 0.00 0.00 0.00 0.00 0.00 0.00 0.00 0.00 0.00 0.00 0.00 0.00 0.00 0.00 0.00 0.00 0.00 0.00 0.02 0.05 0.03 0.02 0.02 0.02 0.02 0.02 0.04 0.05 0.08 0.07 0.06 0.05 0.04 0.05 0.03 0.03 0.04 0.05 0.04 0.06 0.05 0.05
0.00 0.00 0.00 0.00 0.00 0.00 0.00 0.00 0.00 0.00 0.00 0.00 0.00 0.00 0.00 0.00 0.00 0.00 0.00 0.00 0.00 0.01 0.01 0.01 0.01 0.02 0.04 0.02 0.02 0.04 0.03 0.03 0.04 0.05 0.05 0.06 0.04 0.06 0.05 0.05 0.05 0.04 0.04 0.06 0.07 0.07 0.07 0.05 0.05
0.00 0.00 0.00 0.00 0.00 0.00 0.00 0.01 0.00 0.00 0.00 0.00 0.00 0.00 0.00 0.00 0.00 0.00 0.00 0.00 0.01 0.01 0.02 0.01 0.01 0.01 0.03 0.04 0.04 0.07 0.06 0.04 0.03 0.03 0.05 0.06 0.05 0.05 0.06 0.06 0.05 0.04 0.05 0.06 0.09 0.09 0.09 0.09 0.07
0.00 0.00 0.00 0.00 0.00 0.00 0.00 0.00 0.00 0.00 0.00 0.00 0.00 0.00 0.00 0.00 0.00 0.00 0.00 0.00 0.02 0.03 0.03 0.02 0.01 0.02 0.02 0.04 0.04 0.05 0.06 0.05 0.05 0.04 0.06 0.06 0.06 0.05 0.07 0.09 0.09 0.07 0.07 0.09 0.08 0.10 0.13 0.13 0.11
0.00 0.00 0.00 0.00 0.00 0.00 0.00 0.00 0.00 0.00 0.00 0.00 0.00 0.00 0.00 0.00 0.00 0.00 0.00 0.01 0.02 0.02 0.02 0.03 0.04 0.05 0.03 0.03 0.03 0.05 0.05 0.04 0.05 0.05 0.07 0.08 0.07 0.06 0.08 0.09 0.09 0.08 0.09 0.10 0.10 0.11 0.11 0.10 0.08
0.00 0.00 0.00 0.00 0.00 0.00 0.00 0.00 0.00 0.00 0.00 0.00 0.00 0.00 0.00 0.00 0.00 0.01 0.01 0.02 0.02 0.03 0.04 0.05 0.06 0.06 0.04 0.03 0.04 0.05 0.06 0.05 0.06 0.05 0.07 0.07 0.07 0.07 0.08 0.06 0.11 0.10 0.09 0.10 0.09 0.08 0.09 0.08 0.06
0.00 0.00 0.00 0.00 0.00 0.00 0.00 0.00 0.00 0.00 0.00 0.00 0.00 0.00 0.00 0.01 0.01 0.01 0.03 0.03 0.03 0.03 0.04 0.04 0.05 0.06 0.06 0.04 0.06 0.06 0.06 0.06 0.05 0.06 0.09 0.05 0.06 0.06 0.06 0.07 0.09 0.09 0.09 0.09 0.09 0.10 0.09 0.08 0.08
0.00 0.00 0.00 0.00 0.00 0.00 0.00 0.00 0.00 0.00 0.00 0.00 0.00 0.00 0.00 0.01 0.01 0.02 0.02 0.03 0.01 0.02 0.03 0.04 0.05 0.08 0.08 0.05 0.06 0.06 0.06 0.06 0.05 0.07 0.08 0.06 0.05 0.05 0.05 0.06 0.07 0.08 0.07 0.07 0.10 0.11 0.11 0.11 0.10
0.00 0.00 0.00 0.00 0.00 0.00 0.00 0.00 0.00 0.00 0.00 0.00 0.00 0.00 0.00 0.00 0.01 0.01 0.02 0.04 0.02 0.01 0.03 0.06 0.07 0.08 0.08 0.07 0.06 0.07 0.06 0.07 0.07 0.08 0.09 0.08 0.06 0.05 0.05 0.05 0.07 0.07 0.05 0.07 0.08 0.08 0.10 0.12 0.12
0.00 0.00 0.00 0.00 0.00 0.00 0.00 0.00 0.00 0.00 0.00 0.00 0.00 0.00 0.00 0.00 0.00 0.01 0.01 0.02 0.02 0.01 0.03 0.06 0.09 0.08 0.07 0.07 0.06 0.07 0.05 0.07 0.09 0.09 0.08 0.08 0.06 0.04 0.05 0.06 0.07 0.08 0.06 0.07 0.08 0.08 0.08 0.08 0.11
0.00 0.00 0.00 0.00 0.00 0.00 0.00 0.00 0.00 0.00 0.00 0.00 0.00 0.00 0.00 0.00 0.00 0.00 0.01 0.03 0.02 0.01 0.02 0.04 0.10 0.11 0.07 0.05 0.04 0.05 0.05 0.07 0.09 0.10 0.08 0.06 0.06 0.05 0.05 0.05 0.06 0.07 0.06 0.06 0.07 0.07 0.07 0.08 0.08
0.00 0.00 0.00 0.00 0.00 0.00 0.00 0.00 0.00 0.00 0.00 0.00 0.00 0.00 0.00 0.00 0.00 0.00 0.01 0.01 0.01 0.01 0.02 0.04 0.05 0.06 0.04 0.04 0.03 0.03 0.05 0.07 0.08 0.08 0.07 0.07 0.06 0.05 0.05 0.04 0.04 0.05 0.06 0.05 0.06 0.07 0.08 0.08 0.09
0.00 0.00 0.00 0.00 0.00 0.00 0.00 0.00 0.00 0.00 0.00 0.00 0.00 0.00 0.00 0.00 0.00 0.00 0.00 0.00 0.01 0.01 0.01 0.03 0.05 0.04 0.04 0.05 0.04 0.04 0.06 0.06 0.06 0.06 0.06 0.06 0.05 0.04 0.03 0.03 0.04 0.04 0.04 0.04 0.06 0.06 0.07 0.08 0.09
0.00 0.00 0.00 0.00 0.00 0.00 0.00 0.00 0.00 0.00 0.00 0.00 0.00 0.00 0.00 0.00 0.00 0.00 0.01 0.00 0.01 0.01 0.02 0.03 0.03 0.05 0.08 0.06 0.05 0.03 0.04 0.06 0.06 0.04 0.04 0.05 0.04 0.03 0.02 0.02 0.04 0.03 0.04 0.05 0.06 0.05 0.06 0.07 0.09
0.00 0.00 0.00 0.00 0.00 0.00 0.00 0.00 0.00 0.00 0.00 0.00 0.00 0.00 0.00 0.00 0.00 0.00 0.00 0.00 0.01 0.01 0.02 0.02 0.02 0.04 0.04 0.04 0.03 0.03 0.04 0.06 0.06 0.05 0.04 0.04 0.03 0.03 0.02 0.01 0.02 0.02 0.02 0.03 0.05 0.05 0.06 0.08 0.09
0.00 0.00 0.00 0.00 0.00 0.00 0.00 0.00 0.00 0.00 0.00 0.00 0.00 0.00 0.00 0.00 0.00 0.00 0.00 0.00 0.01 0.01 0.02 0.03 0.02 0.03 0.04 0.05 0.04 0.04 0.05 0.05 0.04 0.05 0.04 0.04 0.04 0.02 0.01 0.01 0.01 0.01 0.01 0.04 0.05 0.05 0.06 0.09 0.10
0.00 0.00 0.00 0.00 0.00 0.00 0.00 0.00 0.00 0.00 0.00 0.00 0.00 0.00 0.00 0.00 0.00 0.00 0.00 0.00 0.01 0.01 0.01 0.03 0.03 0.03 0.05 0.04 0.03 0.04 0.05 0.06 0.06 0.04 0.03 0.02 0.02 0.01 0.02 0.02 0.01 0.01 0.01 0.03 0.05 0.05 0.04 0.07 0.09
MSLP
1007.55 1008.09 1008.83 1009.69 1010.55 1011.33 1011.97 1012.45 1012.80 1013.05 1013.25 1013.44 1013.63 1013.82 1013.99 1014.10 1014.15 1014.12 1014.05 1013.99 1013.98 1014.06 1014.24 1014.51 1014.84 1015.17 1015.43 1015.60 1015.65 1015.60 1015.48 1015.33 1015.21 1015.14 1015.14 1015.20 1015.28 1015.37 1015.42 1015.44 1015.44 1015.43 1015.46 1015.53 1015.67 1015.85 1016.07 1016.27 1016.42
1007.67 1008.38 1009.27 1010.22 1011.13 1011.88 1012.45 1012.81 1013.01 1013.10 1013.17 1013.25 1013.37 1013.53 1013.70 1013.84 1013.93 1013.95 1013.94 1013.92 1013.94 1014.05 1014.26 1014.56 1014.92 1015.27 1015.57 1015.77 1015.86 1015.84 1015.76 1015.64 1015.55 1015.51 1015.53 1015.59 1015.66 1015.74 1015.78 1015.79 1015.78 1015.78 1015.82 1015.92 1016.08 1016.28 1016.50 1016.69 1016.81
1007.97 1008.83 1009.83 1010.84 1011.75 1012.45 1012.92 1013.15 1013.21 1013.17 1013.11 1013.11 1013.17 1013.31 1013.48 1013.65 1013.77 1013.82 1013.84 1013.84 1013.89 1014.01 1014.23 1014.55 1014.93 1015.32 1015.65 1015.90 1016.04 1016.08 1016.05 1015.99 1015.94 1015.93 1015.96 1016.02 1016.09 1016.15 1016.17 1016.17 1016.15 1016.16 1016.21 1016.33 1016.51 1016.72 1016.94 1017.10 1017.19
1008.42 1009.39 1010.46 1011.49 1012.36 1012.99 1013.36 1013.48 1013.42 1013.27 1013.14 1013.08 1013.12 1013.25 1013.43 1013.60 1013.73 1013.80 1013.82 1013.83 1013.87 1013.99 1014.22 1014.55 1014.95 1015.36 1015.73 1016.03 1016.22 1016.32 1016.35 1016.34 1016.34 1016.36 1016.41 1016.48 1016.54 1016.58 1016.58 1016.57 1016.55 1016.56 1016.62 1016.75 1016.94 1017.16 1017.36 1017.50 1017.56
1008.94 1009.98 1011.06 1012.07 1012.89 1013.44 1013.72 1013.75 1013.62 1013.42 1013.26 1013.19 1013.24 1013.37 1013.56 1013.74 1013.86 1013.92 1013.93 1013.92 1013.95 1014.06 1014.29 1014.61 1015.02 1015.45 1015.84 1016.17 1016.40 1016.54 1016.61 1016.66 1016.70 1016.75 1016.83 1016.91 1016.97 1017.00 1017.00 1016.97 1016.95 1016.96 1017.03 1017.17 1017.36 1017.57 1017.75 1017.86 1017.87
1009.47 1010.50 1011.55 1012.49 1013.23 1013.71 1013.92 1013.91 1013.76 1013.58 1013.44 1013.41 1013.49 1013.65 1013.86 1014.04 1014.16 1014.20 1014.19 1014.16 1014.17 1014.27 1014.48 1014.80 1015.19 1015.61 1016.00 1016.33 1016.57 1016.73 1016.83 1016.90 1016.97 1017.06 1017.16 1017.26 1017.34 1017.37 1017.37 1017.34 1017.32 1017.33 1017.40 1017.54 1017.72 1017.91 1018.06 1018.14 1018.11
1009.92 1010.88 1011.84 1012.69 1013.33 1013.73 1013.90 1013.89 1013.78 1013.65 1013.60 1013.64 1013.79 1014.01 1014.25 1014.44 1014.56 1014.59 1014.56 1014.52 1014.52 1014.60 1014.80 1015.10 1015.47 1015.85 1016.21 1016.50 1016.71 1016.85 1016.95 1017.03 1017.13 1017.24 1017.38 1017.50 1017.60 1017.65 1017.66 1017.64 1017.62 1017.63 1017.70 1017.82 1017.98 1018.14 1018.26 1018.29 1018.22
1010.25 1011.09 1011.92 1012.63 1013.17 1013.51 1013.66 1013.67 1013.63 1013.60 1013.66 1013.81 1014.06 1014.35 1014.63 1014.85 1014.98 1015.01 1014.98 1014.94 1014.94 1015.03 1015.21 1015.49 1015.82 1016.15 1016.45 1016.67 1016.82 1016.91 1016.98 1017.05 1017.15 1017.29 1017.46 1017.62 1017.75 1017.83 1017.86 1017.86 1017.84 1017.84 1017.90 1018.00 1018.13 1018.26 1018.33 1018.32 1018.22
1010.46 1011.16 1011.82 1012.39 1012.82 1013.08 1013.22 1013.27 1013.31 1013.40 1013.58 1013.86 1014.21 1014.58 1014.91 1015.17 1015.32 1015.37 1015.37 1015.35 1015.37 1015.47 1015.65 1015.91 1016.19 1016.46 1016.68 1016.82 1016.88 1016.91 1016.92 1016.97 1017.07 1017.23 1017.43 1017.63 1017.80 1017.92 1017.98 1017.98 1017.97 1017.96 1017.99 1018.07 1018.16 1018.25 1018.29 1018.25 1018.11
1010.60 1011.14 1011.64 1012.06 1012.36 1012.56 1012.68 1012.77 1012.89 1013.09 1013.38 1013.77 1014.21 1014.65 1015.05 1015.35 1015.53 1015.63 1015.66 1015.69 1015.75 1015.88 1016.07 1016.31 1016.55 1016.75 1016.88 1016.93 1016.91 1016.86 1016.82 1016.84 1016.93 1017.11 1017.34 1017.58 1017.79 1017.94 1018.02 1018.04 1018.02 1018.01 1018.01 1018.05 1018.12 1018.17 1018.18 1018.11 1017.96
1010.75 1011.15 1011.49 1011.76 1011.95 1012.07 1012.16 1012.27 1012.45 1012.72 1013.11 1013.58 1014.09 1014.59 1015.03 1015.37 1015.61 1015.75 1015.84 1015.92 1016.04 1016.21 1016.42 1016.65 1016.86 1017.00 1017.06 1017.02 1016.92 1016.80 1016.71 1016.70 1016.80 1016.98 1017.24 1017.51 1017.76 1017.93 1018.03 1018.05 1018.03 1018.00 1017.98 1017.99 1018.03 1018.06 1018.05 1017.96 1017.81
1010.98 1011.26 1011.46 1011.60 1011.68 1011.73 1011.78 1011.88 1012.08 1012.40 1012.83 1013.35 1013.90 1014.44 1014.91 1015.29 1015.57 1015.76 1015.91 1016.06 1016.23 1016.44 1016.68 1016.91 1017.10 1017.20 1017.20 1017.11 1016.95 1016.78 1016.66 1016.63 1016.71 1016.91 1017.17 1017.47 1017.73 1017.92 1018.03 1018.05 1018.01 1017.97 1017.93 1017.92 1017.94 1017.96 1017.94 1017.86 1017.71
1011.34 1011.52 1011.62 1011.66 1011.64 1011.61 1011.61 1011.68 1011.87 1012.19 1012.63 1013.16 1013.72 1014.27 1014.77 1015.17 1015.49 1015.73 1015.93 1016.12 1016.34 1016.59 1016.85 1017.09 1017.26 1017.34 1017.32 1017.20 1017.01 1016.82 1016.68 1016.64 1016.72 1016.91 1017.17 1017.46 1017.72 1017.91 1018.01 1018.03 1017.98 1017.92 1017.88 1017.86 1017.88 1017.90 1017.89 1017.83 1017.70
1011.82 1011.95 1011.97 1011.92 1011.83 1011.73 1011.67 1011.70 1011.85 1012.14 1012.55 1013.06 1013.61 1014.16 1014.65 1015.07 1015.41 1015.69 1015.93 1016.16 1016.41 1016.68 1016.95 1017.19 1017.37 1017.45 1017.42 1017.30 1017.12 1016.93 1016.79 1016.75 1016.81 1016.98 1017.22 1017.49 1017.72 1017.89 1017.98 1017.98 1017.93 1017.87 1017.83 1017.82 1017.84 1017.88 1017.90 1017.86 1017.75
1012.38 1012.47 1012.45 1012.34 1012.19 1012.03 1011.92 1011.90 1012.00 1012.24 1012.60 1013.07 1013.59 1014.11 1014.60 1015.03 1015.39 1015.69 1015.95 1016.20 1016.46 1016.73 1017.00 1017.24 1017.42 1017.51 1017.51 1017.41 1017.26 1017.10 1016.97 1016.92 1016.97 1017.10 1017.30 1017.51 1017.71 1017.84 1017.90 1017.90 1017.85 1017.79 1017.76 1017.76 1017.81 1017.87 1017.91 1017.91 1017.83
1012.94 1013.01 1012.96 1012.82 1012.64 1012.45 1012.29 1012.22 1012.26 1012.44 1012.74 1013.15 1013.63 1014.12 1014.61 1015.04 1015.41 1015.72 1015.99 1016.25 1016.50 1016.76 1017.01 1017.25 1017.43 1017.54 1017.57 1017.53 1017.42 1017.29 1017.19 1017.13 1017.15 1017.23 1017.36 1017.51 1017.65 1017.74 1017.77 1017.76 1017.71 1017.67 1017.65 1017.68 1017.74 1017.83 1017.90 1017.92 1017.87
1013.44 1013.49 1013.43 1013.29 1013.10 1012.89 1012.70 1012.58 1012.57 1012.67 1012.90 1013.25 1013.68 1014.14 1014.61 1015.05 1015.44 1015.77 1016.04 1016.29 1016.53 1016.76 1016.99 1017.22 1017.40 1017.54 1017.61 1017.62 1017.57 1017.48 1017.39 1017.33 1017.31 1017.33 1017.39 1017.46 1017.53 1017.57 1017.58 1017.56 1017.53 1017.50 1017.51 1017.55 1017.63 1017.73 1017.82 1017.86 1017.83
1013.82 1013.86 1013.82 1013.70 1013.52 1013.32 1013.12 1012.96 1012.87 1012.90 1013.04 1013.31 1013.68 1014.11 1014.57 1015.01 1015.42 1015.76 1016.05 1016.30 1016.52 1016.73 1016.94 1017.15 1017.34 1017.50 1017.62 1017.68 1017.68 1017.64 1017.57 1017.49 1017.43 1017.39 1017.37 1017.37 1017.37 1017.37 1017.35 1017.33 1017.31 1017.31 1017.33 1017.39 1017.47 1017.57 1017.66 1017.71 1017.69
1014.08 1014.13 1014.12 1014.05 1013.91 1013.73 1013.52 1013.32 1013.16 1013.09 1013.13 1013.30 1013.59 1013.98 1014.42 1014.87 1015.30 1015.67 1015.98 1016.24 1016.46 1016.66 1016.85 1017.05 1017.24 1017.43 1017.59 1017.70 1017.76 1017.76 1017.71 1017.62 1017.52 1017.41 1017.33 1017.25 1017.20 1017.16 1017.14 1017.12 1017.11 1017.13 1017.16 1017.21 1017.29 1017.37 1017.44 1017.48 1017.47
1014.23 1014.32 1014.37 1014.38 1014.31 1014.17 1013.96 1013.71 1013.46 1013.27 1013.18 1013.23 1013.41 1013.73 1014.14 1014.59 1015.05 1015.46 1015.82 1016.10 1016.34 1016.54 1016.73 1016.92 1017.13 1017.34 1017.53 1017.69 1017.80 1017.84 1017.81 1017.72 1017.59 1017.44 1017.30 1017.17 1017.08 1017.01 1016.98 1016.97 1016.98 1017.00 1017.03 1017.07 1017.11 1017.15 1017.19 1017.21 1017.19
1014.34 1014.49 1014.64 1014.75 1014.77 1014.68 1014.47 1014.16 1013.81 1013.47 1013.22 1013.11 1013.17 1013.39 1013.75 1014.20 1014.68 1015.15 1015.56 1015.89 1016.16 1016.39 1016.59 1016.79 1017.01 1017.24 1017.47 1017.67 1017.82 1017.90 1017.89 1017.81 1017.67 1017.50 1017.32 1017.17 1017.05 1016.97 1016.94 1016.94 1016.96 1016.97 1016.99 1017.00 1017.00 1016.99 1016.98 1016.96 1016.94
1014.44 1014.69 1014.97 1015.21 1015.33 1015.30 1015.08 1014.71 1014.23 1013.73 1013.30 1013.01 1012.91 1013.02 1013.31 1013.75 1014.26 1014.77 1015.25 1015.65 1015.97 1016.23 1016.45 1016.67 1016.90 1017.15 1017.41 1017.65 1017.84 1017.95 1017.98 1017.92 1017.79 1017.61 1017.43 1017.26 1017.14 1017.07 1017.04 1017.05 1017.06 1017.07 1017.06 1017.03 1016.98 1016.91 1016.85 1016.80 1016.76
1014.58 1014.96 1015.38 1015.76 1015.99 1016.02 1015.80 1015.35 1014.75 1014.07 1013.45 1012.97 1012.70 1012.68 1012.90 1013.31 1013.84 1014.40 1014.94 1015.40 1015.78 1016.09 1016.34 1016.58 1016.82 1017.09 1017.36 1017.63 1017.85 1018.01 1018.07 1018.05 1017.94 1017.79 1017.62 1017.47 1017.36 1017.29 1017.27 1017.29 1017.30 1017.29 1017.25 1017.17 1017.07 1016.95 1016.83 1016.75 1016.70
1014.76 1015.28 1015.85 1016.36 1016.69 1016.77 1016.55 1016.04 1015.31 1014.48 1013.67 1013.01 1012.59 1012.45 1012.59 1012.96 1013.49 1014.10 1014.69 1015.21 1015.64 1015.99 1016.27 1016.52 1016.77 1017.04 1017.33 1017.61 1017.87 1018.06 1018.17 1018.19 1018.13 1018.02 1017.88 1017.76 1017.67 1017.62 1017.61 1017.62 1017.63 1017.61 1017.53 1017.42 1017.26 1017.10 1016.94 1016.83 1016.76
1014.96 1015.61 1016.31 1016.93 1017.35 1017.46 1017.23 1016.68 1015.86 1014.90 1013.95 1013.15 1012.60 1012.35 1012.42 1012.75 1013.28 1013.91 1014.53 1015.10 1015.57 1015.94 1016.23 1016.49 1016.74 1017.01 1017.29 1017.59 1017.86 1018.09 1018.25 1018.32 1018.32 1018.26 1018.17 1018.09 1018.03 1018.01 1018.01 1018.02 1018.02 1017.98 1017.88 1017.73 1017.54 1017.34 1017.16 1017.02 1016.95
1015.14 1015.89 1016.68 1017.37 1017.84 1017.98 1017.76 1017.17 1016.30 1015.27 1014.24 1013.35 1012.71 1012.40 1012.41 1012.71 1013.23 1013.85 1014.48 1015.06 1015.55 1015.92 1016.22 1016.47 1016.71 1016.96 1017.24 1017.55 1017.84 1018.10 1018.31 1018.44 1018.50 1018.50 1018.47 1018.43 1018.41 1018.41 1018.42 1018.44 1018.43 1018.37 1018.26 1018.09 1017.89 1017.67 1017.47 1017.32 1017.23
1015.28 1016.07 1016.89 1017.60 1018.09 1018.24 1018.02 1017.43 1016.56 1015.53 1014.49 1013.58 1012.92 1012.57 1012.56 1012.83 1013.31 1013.91 1014.53 1015.09 1015.56 1015.92 1016.20 1016.43 1016.65 1016.89 1017.17 1017.48 1017.79 1018.08 1018.33 1018.52 1018.64 1018.70 1018.73 1018.74 1018.76 1018.79 1018.82 1018.84 1018.83 1018.77 1018.66 1018.49 1018.28 1018.06 1017.85 1017.70 1017.60
1015.35 1016.12 1016.90 1017.58 1018.04 1018.19 1017.98 1017.43 1016.61 1015.64 1014.65 1013.80 1013.17 1012.84 1012.81 1013.06 1013.50 1014.06 1014.62 1015.14 1015.57 1015.90 1016.15 1016.36 1016.56 1016.79 1017.07 1017.38 1017.71 1018.03 1018.33 1018.56 1018.74 1018.86 1018.95 1019.02 1019.08 1019.14 1019.19 1019.23 1019.23 1019.18 1019.07 1018.91 1018.72 1018.50 1018.30 1018.14 1018.03
1015.36 1016.04 1016.73 1017.32 1017.72 1017.83 1017.64 1017.15 1016.43 1015.58 1014.72 1013.97 1013.43 1013.15 1013.13 1013.35 1013.75 1014.23 1014.72 1015.17 1015.54 1015.82 1016.05 1016.24 1016.43 1016.67 1016.95 1017.27 1017.63 1017.98 1018.31 1018.59 1018.82 1019.00 1019.14 1019.26 1019.36 1019.46 1019.55 1019.61 1019.63 1019.61 1019.52 1019.39 1019.21 1019.01 1018.82 1018.66 1018.52
1015.32 1015.88 1016.43 1016.89 1017.18 1017.26 1017.09 1016.68 1016.08 1015.39 1014.70 1014.10 1013.67 1013.46 1013.46 1013.65 1013.98 1014.38 1014.78 1015.15 1015.45 1015.69 1015.88 1016.07 1016.27 1016.53 1016.83 1017.18 1017.56 1017.95 1018.31 1018.63 1018.90 1019.13 1019.32 1019.48 1019.63 1019.77 1019.90 1020.00 1020.06 1020.06 1020.01 1019.91 1019.76 1019.59 1019.41 1019.24 1019.09
Thickness
5846 5850 5851 5846 5835 5814 5794 5798 5804 5799 5798 5802 5802 5798 5789 5782 5777 5762 5780 5788 5785 5783 5777 5770 5767 5766 5764 5763 5763 5762 5761 5761 5760 5760 5759 5758 5758 5757 5757 5756 5756 5755 5754 5753 5753 5752 5751 5750 5749
5855 5854 5850 5845 5824 5795 5788 5801 5799 5799 5802 5805 5802 5798 5790 5781 5784 5780 5783 5785 5785 5783 5778 5772 5766 5765 5763 5762 5761 5761 5760 5759 5759 5758 5757 5757 5756 5756 5755 5754 5754 5753 5752 5752 5751 5750 5749 5748 5747
5857 5856 5849 5840 5815 5797 5791 5802 5800 5804 5808 5805 5797 5797 5790 5780 5783 5783 5786 5786 5785 5781 5776 5769 5766 5764 5762 5761 5760 5759 5759 5758 5757 5756 5756 5756 5755 5755 5754 5753 5752 5751 5750 5750 5749 5748 5747 5746 5745
5858 5855 5852 5830 5805 5807 5807 5807 5809 5805 5805 5806 5801 5790 5788 5789 5789 5789 5789 5787 5784 5780 5778 5769 5765 5763 5762 5760 5760 5759 5758 5757 5756 5755 5755 5754 5753 5753 5752 5751 5751 5750 5749 5748 5747 5746 5745 5744 5744
5863 5855 5835 5816 5808 5812 5817 5816 5815 5807 5801 5803 5801 5787 5780 5788 5794 5792 5788 5787 5785 5783 5778 5771 5765 5763 5761 5759 5758 5758 5757 5756 5755 5754 5753 5753 5752 5751 5750 5750 5749 5748 5747 5746 5745 5744 5743 5743 5742
5858 5854 5825 5807 5806 5814 5819 5820 5817 5808 5802 5802 5799 5788 5779 5788 5790 5790 5790 5788 5787 5783 5779 5771 5764 5762 5760 5759 5757 5757 5756 5755 5754 5753 5752 5751 5751 5750 5749 5748 5748 5746 5745 5744 5744 5743 5742 5742 5741
5852 5843 5823 5816 5810 5811 5817 5824 5817 5809 5802 5802 5805 5789 5782 5787 5791 5792 5789 5787 5786 5783 5780 5775 5770 5764 5760 5758 5757 5755 5754 5753 5753 5752 5751 5750 5750 5749 5748 5747 5747 5745 5744 5743 5743 5742 5742 5741 5741
5861 5848 5827 5821 5814 5812 5823 5825 5822 5815 5805 5812 5811 5793 5784 5788 5792 5792 5788 5786 5784 5782 5780 5774 5772 5768 5765 5762 5757 5755 5754 5752 5751 5751 5750 5750 5749 5749 5748 5747 5745 5744 5743 5743 5742 5741 5741 5741 5740
5862 5843 5823 5823 5820 5819 5827 5822 5822 5825 5814 5811 5812 5808 5803 5796 5793 5788 5784 5782 5779 5778 5778 5777 5773 5769 5767 5765 5759 5757 5754 5753 5752 5751 5750 5751 5754 5753 5750 5747 5744 5744 5743 5742 5742 5742 5742 5742 5741
5855 5834 5826 5834 5837 5831 5828 5824 5823 5818 5809 5805 5804 5804 5802 5796 5791 5786 5782 5779 5776 5774 5775 5775 5772 5768 5767 5766 5761 5760 5759 5756 5755 5754 5753 5753 5752 5752 5751 5745 5744 5744 5743 5743 5742 5743 5743 5745 5748
5849 5835 5837 5840 5843 5839 5831 5828 5829 5819 5809 5810 5804 5799 5798 5795 5790 5787 5784 5783 5779 5776 5775 5774 5770 5767 5767 5765 5764 5762 5760 5757 5757 5754 5753 5752 5752 5752 5751 5750 5747 5746 5746 5748 5746 5747 5749 5750 5749
5844 5841 5842 5843 5845 5840 5834 5831 5827 5823 5821 5825 5819 5809 5801 5795 5792 5789 5785 5783 5780 5777 5775 5775 5771 5767 5765 5765 5765 5763 5762 5760 5759 5755 5754 5754 5753 5752 5752 5750 5751 5751 5750 5749 5750 5750 5750 5750 5749
5839 5839 5844 5846 5845 5842 5838 5832 5827 5824 5829 5828 5820 5810 5803 5799 5796 5794 5791 5786 5782 5777 5775 5774 5770 5767 5764 5762 5763 5764 5762 5761 5759 5755 5754 5753 5754 5753 5752 5751 5750 5753 5752 5752 5751 5752 5751 5751 5751
5841 5841 5842 5844 5842 5841 5834 5830 5828 5824 5828 5822 5814 5808 5805 5802 5798 5794 5789 5785 5782 5779 5776 5774 5770 5767 5764 5762 5761 5762 5762 5759 5760 5757 5755 5754 5754 5753 5752 5751 5751 5753 5753 5753 5752 5753 5752 5752 5752
5844 5837 5836 5839 5840 5839 5836 5822 5824 5829 5827 5818 5813 5809 5806 5803 5800 5795 5792 5787 5785 5781 5778 5774 5772 5768 5765 5764 5762 5763 5762 5761 5760 5758 5756 5754 5754 5752 5752 5753 5752 5753 5752 5751 5751 5752 5753 5753 5753
5840 5832 5822 5831 5837 5838 5830 5814 5826 5832 5825 5816 5813 5809 5805 5803 5802 5799 5796 5791 5788 5785 5780 5776 5776 5771 5767 5764 5763 5764 5764 5761 5760 5759 5757 5755 5754 5753 5753 5754 5754 5753 5753 5753 5753 5753 5753 5753 5754
5827 5820 5819 5823 5835 5835 5829 5820 5827 5832 5826 5817 5814 5811 5806 5803 5802 5801 5799 5794 5790 5786 5781 5777 5776 5773 5770 5767 5764 5763 5762 5760 5760 5759 5758 5757 5755 5754 5754 5754 5753 5752 5754 5754 5755 5755 5753 5752 5752
5817 5821 5818 5819 5829 5830 5825 5825 5828 5830 5827 5821 5817 5814 5809 5805 5804 5804 5801 5798 5793 5788 5783 5779 5776 5773 5770 5768 5765 5764 5763 5762 5760 5760 5758 5757 5756 5756 5755 5755 5753 5754 5754 5754 5754 5752 5752 5752 5752
5825 5820 5817 5821 5831 5826 5822 5823 5826 5829 5826 5822 5820 5816 5812 5809 5811 5807 5802 5799 5794 5789 5784 5780 5776 5773 5770 5768 5766 5763 5762 5762 5762 5762 5760 5758 5757 5757 5755 5757 5755 5754 5755 5754 5755 5754 5753 5753 5754
5820 5815 5815 5820 5826 5824 5820 5821 5829 5829 5826 5826 5823 5819 5815 5812 5809 5805 5802 5799 5795 5790 5785 5781 5777 5775 5772 5770 5767 5766 5764 5764 5764 5763 5760 5759 5758 5758 5758 5756 5756 5756 5755 5754 5754 5753 5753 5753 5754
5815 5815 5815 5813 5820 5825 5819 5815 5823 5829 5830 5829 5828 5826 5823 5817 5811 5807 5803 5800 5797 5792 5788 5785 5781 5777 5774 5772 5769 5767 5763 5762 5763 5762 5761 5760 5759 5759 5758 5757 5756 5756 5756 5756 5754 5753 5751 5750 5752
5806 5821 5817 5813 5810 5812 5814 5806 5818 5826 5824 5825 5827 5827 5826 5823 5818 5813 5807 5802 5799 5795 5792 5787 5783 5779 5775 5772 5770 5766 5763 5761 5762 5762 5761 5760 5759 5758 5758 5757 5756 5756 5757 5756 5755 5756 5753 5750 5749
5815 5821 5817 5814 5810 5809 5813 5808 5819 5826 5820 5824 5829 5830 5830 5827 5822 5817 5812 5806 5802 5799 5794 5789 5784 5780 5777 5773 5770 5766 5764 5763 5764 5762 5760 5759 5759 5758 5757 5757 5756 5756 5756 5755 5754 5753 5752 5751 5749
5815 5812 5809 5810 5809 5790 5804 5802 5808 5825 5824 5829 5832 5832 5831 5829 5825 5819 5815 5809 5803 5800 5794 5789 5784 5779 5776 5773 5770 5766 5764 5762 5760 5759 5758 5758 5759 5758 5757 5756 5755 5755 5755 5754 5753 5752 5751 5749 5748
5808 5798 5784 5780 5783 5789 5807 5801 5811 5831 5835 5833 5832 5832 5833 5830 5826 5819 5813 5807 5802 5798 5794 5789 5783 5777 5775 5772 5769 5767 5764 5762 5759 5758 5758 5756 5757 5757 5755 5755 5753 5753 5752 5752 5751 5749 5748 5747 5745
5803 5804 5785 5774 5778 5794 5797 5798 5820 5835 5836 5836 5836 5836 5833 5830 5827 5821 5815 5809 5803 5798 5794 5789 5783 5778 5775 5772 5769 5766 5764 5763 5761 5758 5757 5756 5755 5755 5753 5752 5750 5750 5749 5749 5748 5748 5746 5745 5743
5798 5802 5817 5802 5794 5789 5799 5807 5823 5834 5832 5832 5832 5832 5830 5828 5826 5821 5816 5811 5805 5800 5795 5790 5784 5779 5775 5773 5769 5766 5763 5760 5758 5756 5755 5754 5752 5752 5750 5749 5748 5747 5746 5745 5745 5744 5743 5742 5740
5811 5811 5801 5794 5774 5773 5787 5795 5808 5818 5823 5827 5827 5827 5827 5827 5824 5820 5815 5810 5805 5801 5795 5791 5784 5779 5775 5772 5769 5766 5761 5757 5755 5754 5751 5749 5748 5747 5747 5746 5745 5744 5743 5743 5742 5741 5739 5738 5737
5793 5796 5799 5798 5797 5780 5777 5795 5826 5823 5824 5825 5827 5827 5827 5825 5822 5817 5812 5808 5804 5799 5793 5787 5782 5777 5773 5770 5766 5762 5759 5755 5753 5751 5749 5746 5744 5743 5743 5742 5742 5741 5740 5739 5738 5737 5736 5735 5733
5805 5802 5797 5783 5780 5788 5790 5800 5829 5829 5830 5828 5826 5825 5825 5823 5819 5815 5810 5804 5800 5795 5790 5785 5780 5776 5772 5768 5764 5759 5756 5753 5751 5748 5746 5744 5742 5741 5739 5739 5738 5738 5737 5735 5734 5733 5732 5731 5729